When you browse on this site, cookies collect data to enhance your experience and personalize the content and advertising you see.
Visit our Privacy Policy to learn more. By continuing to use the site, you agree to this use of cookies and data.
  • în România
  • Lista ţărilor
  • Pe 7 zile
  • Temperatura apei
  • Meteo pe hartă
  • Widget-uri
  • user-avatar
    Intrare

    Meteo pe oră la Świętochłowice

    Astăzi, 6 Decembrie, Vineri

    Timp Temperatura Precipitaţii Vânt Presiune Umiditate
    00:00 -5°C° 0 mm 6 m/s 739 mmHg 72%
    01:00 -5°C° 0 mm 5 m/s 739 mmHg 74%
    02:00 -5°C° 0 mm 6 m/s 738 mmHg 74%
    03:00 -5°C° 0 mm 6 m/s 738 mmHg 75%
    04:00 -5°C° 0 mm 6 m/s 738 mmHg 75%
    05:00 -5°C° 0 mm 6 m/s 738 mmHg 75%
    06:00 -5°C° 0 mm 6 m/s 738 mmHg 75%
    07:00 -5°C° 0 mm 6 m/s 738 mmHg 75%
    08:00 -4°C° 0 mm 6 m/s 737 mmHg 71%
    09:00 -4°C° 0 mm 6 m/s 737 mmHg 68%
    10:00 -3°C° 0 mm 6 m/s 737 mmHg 65%
    11:00 -3°C° 0 mm 6 m/s 737 mmHg 62%
    12:00 -2°C° 0 mm 6 m/s 736 mmHg 59%
    13:00 -1°C° 0 mm 6 m/s 736 mmHg 57%
    14:00 -2°C° 0 mm 6 m/s 736 mmHg 59%
    15:00 -2°C° 0 mm 6 m/s 735 mmHg 62%
    16:00 -3°C° 0 mm 6 m/s 735 mmHg 65%
    17:00 -3°C° 0 mm 6 m/s 735 mmHg 66%
    18:00 -3°C° 0 mm 6 m/s 735 mmHg 67%
    19:00 -3°C° 0 mm 6 m/s 735 mmHg 67%
    20:00 -3°C° 0 mm 6 m/s 735 mmHg 67%
    21:00 -3°C° 0 mm 6 m/s 734 mmHg 67%
    22:00 -3°C° 0 mm 6 m/s 734 mmHg 66%
    23:00 -3°C° 0 mm 6 m/s 734 mmHg 66%

    Mâine, 7 Decembrie, Sâmbătă

    Timp Temperatura Precipitaţii Vânt Presiune Umiditate
    00:00 -3°C° 0 mm 6 m/s 734 mmHg 66%
    01:00 -3°C° 0 mm 6 m/s 733 mmHg 66%
    02:00 -3°C° 0 mm 6 m/s 733 mmHg 66%
    03:00 -2°C° 0 mm 6 m/s 732 mmHg 66%
    04:00 -2°C° 0 mm 6 m/s 731 mmHg 66%
    05:00 -2°C° 0 mm 6 m/s 731 mmHg 66%
    06:00 -2°C° 0 mm 6 m/s 732 mmHg 66%
    07:00 -2°C° 0 mm 7 m/s 732 mmHg 66%
    08:00 -1°C° 0.1 mm 7 m/s 732 mmHg 70%
    09:00 0°C° 0.1 mm 7 m/s 732 mmHg 74%
    10:00 0°C° 0.1 mm 7 m/s 731 mmHg 78%
    11:00 +2°C° 0 mm 7 m/s 731 mmHg 77%
    12:00 +3°C° 0 mm 7 m/s 731 mmHg 77%
    13:00 +2°C° 0 mm 8 m/s 731 mmHg 77%
    14:00 +3°C° 0.1 mm 7 m/s 731 mmHg 79%
    15:00 +3°C° 0.1 mm 6 m/s 731 mmHg 81%
    16:00 +3°C° 0.1 mm 5 m/s 731 mmHg 83%
    17:00 +3°C° 0 mm 5 m/s 732 mmHg 83%
    18:00 +3°C° 0 mm 5 m/s 732 mmHg 83%
    19:00 +3°C° 0 mm 5 m/s 732 mmHg 83%
    20:00 +3°C° 0 mm 5 m/s 733 mmHg 83%
    21:00 +3°C° 0 mm 5 m/s 733 mmHg 84%
    22:00 +2°C° 0 mm 5 m/s 733 mmHg 84%
    23:00 +3°C° 0 mm 5 m/s 733 mmHg 84%

    Poimâine, 8 Decembrie, Duminică

    Timp Temperatura Precipitaţii Vânt Presiune Umiditate
    00:00 +3°C° 0 mm 5 m/s 733 mmHg 84%
    01:00 +3°C° 0 mm 5 m/s 733 mmHg 84%
    02:00 +3°C° 0 mm 5 m/s 733 mmHg 84%
    03:00 +3°C° 0 mm 5 m/s 733 mmHg 84%
    04:00 +3°C° 0 mm 5 m/s 733 mmHg 84%
    05:00 +4°C° 0 mm 4 m/s 733 mmHg 84%
    06:00 +3°C° 0 mm 4 m/s 733 mmHg 84%
    07:00 +3°C° 0 mm 4 m/s 734 mmHg 84%
    08:00 +2°C° 0 mm 5 m/s 733 mmHg 82%
    09:00 +3°C° 0 mm 5 m/s 733 mmHg 80%
    10:00 +3°C° 0 mm 5 m/s 733 mmHg 77%
    11:00 +3°C° 0 mm 6 m/s 733 mmHg 75%
    12:00 +4°C° 0 mm 6 m/s 732 mmHg 73%
    13:00 +4°C° 0 mm 6 m/s 732 mmHg 71%
    14:00 +4°C° 0 mm 6 m/s 731 mmHg 73%
    15:00 +4°C° 0 mm 6 m/s 731 mmHg 74%
    16:00 +3°C° 0 mm 6 m/s 730 mmHg 75%
    17:00 +4°C° 0 mm 7 m/s 730 mmHg 74%
    18:00 +4°C° 0 mm 7 m/s 730 mmHg 72%
    19:00 +5°C° 0 mm 7 m/s 729 mmHg 71%
    20:00 +4°C° 0.2 mm 7 m/s 729 mmHg 71%
    21:00 +4°C° 0.2 mm 7 m/s 728 mmHg 72%
    22:00 +4°C° 0.2 mm 7 m/s 728 mmHg 73%
    23:00 +4°C° 0.6 mm 7 m/s 728 mmHg 75%

    9 Decembrie, Luni

    Timp Temperatura Precipitaţii Vânt Presiune Umiditate
    00:00 +4°C° 0.6 mm 7 m/s 727 mmHg 78%
    01:00 +4°C° 0.6 mm 7 m/s 727 mmHg 80%
    02:00 +4°C° 0.1 mm 7 m/s 727 mmHg 81%
    03:00 +4°C° 0.1 mm 6 m/s 726 mmHg 81%
    04:00 +4°C° 0.1 mm 6 m/s 726 mmHg 82%
    05:00 +4°C° 0 mm 6 m/s 726 mmHg 82%
    06:00 +4°C° 0 mm 6 m/s 726 mmHg 81%
    07:00 +4°C° 0 mm 6 m/s 726 mmHg 81%
    08:00 +4°C° 0 mm 6 m/s 726 mmHg 80%
    09:00 +5°C° 0 mm 6 m/s 726 mmHg 78%
    10:00 +5°C° 0 mm 6 m/s 726 mmHg 77%
    11:00 +5°C° 0 mm 6 m/s 726 mmHg 74%
    12:00 +6°C° 0 mm 5 m/s 725 mmHg 71%
    13:00 +6°C° 0 mm 5 m/s 725 mmHg 68%
    14:00 +6°C° 0 mm 4 m/s 725 mmHg 69%
    15:00 +5°C° 0 mm 4 m/s 724 mmHg 70%
    16:00 +5°C° 0 mm 3 m/s 724 mmHg 71%
    17:00 +4°C° 0 mm 3 m/s 724 mmHg 74%
    18:00 +4°C° 0 mm 3 m/s 724 mmHg 77%
    19:00 +4°C° 0 mm 3 m/s 724 mmHg 79%
    20:00 +3°C° 0 mm 3 m/s 724 mmHg 80%
    21:00 +3°C° 0 mm 4 m/s 724 mmHg 81%
    22:00 +3°C° 0 mm 4 m/s 724 mmHg 81%
    23:00 +1°C° 0 mm 4 m/s 724 mmHg 82%

    10 Decembrie, Marţi

    Timp Temperatura Precipitaţii Vânt Presiune Umiditate
    00:00 +1°C° 0 mm 4 m/s 723 mmHg 82%
    01:00 +1°C° 0 mm 4 m/s 723 mmHg 83%
    02:00 +1°C° 0 mm 4 m/s 723 mmHg 84%
    03:00 +1°C° 0 mm 5 m/s 724 mmHg 85%
    04:00 +1°C° 0 mm 5 m/s 724 mmHg 86%
    05:00 +1°C° 0.4 mm 5 m/s 724 mmHg 88%
    06:00 +1°C° 0.4 mm 6 m/s 725 mmHg 90%
    07:00 +1°C° 0.4 mm 6 m/s 725 mmHg 93%
    08:00 +1°C° 0.2 mm 6 m/s 726 mmHg 86%
    09:00 +1°C° 0.2 mm 6 m/s 727 mmHg 79%
    10:00 +1°C° 0.2 mm 5 m/s 728 mmHg 72%
    11:00 +1°C° 0 mm 5 m/s 728 mmHg 75%
    12:00 +1°C° 0 mm 5 m/s 728 mmHg 78%
    13:00 +1°C° 0 mm 4 m/s 729 mmHg 81%
    14:00 +1°C° 0.8 mm 5 m/s 730 mmHg 84%
    15:00 +1°C° 0.8 mm 5 m/s 731 mmHg 86%
    16:00 +1°C° 0.8 mm 6 m/s 732 mmHg 88%
    17:00 -1°C° 0.3 mm 6 m/s 733 mmHg 88%
    18:00 0°C° 0.3 mm 5 m/s 734 mmHg 88%
    19:00 0°C° 0.3 mm 5 m/s 735 mmHg 88%
    20:00 -1°C° 0.2 mm 5 m/s 735 mmHg 86%
    21:00 -1°C° 0.2 mm 4 m/s 736 mmHg 83%
    22:00 -2°C° 0.2 mm 4 m/s 737 mmHg 81%
    23:00 -1°C° 0 mm 3 m/s 737 mmHg 80%

    11 Decembrie, Miercuri

    Timp Temperatura Precipitaţii Vânt Presiune Umiditate
    00:00 -2°C° 0 mm 3 m/s 737 mmHg 79%
    01:00 -2°C° 0 mm 2 m/s 737 mmHg 78%
    02:00 -3°C° 0 mm 2 m/s 736 mmHg 77%
    03:00 -3°C° 0 mm 2 m/s 736 mmHg 76%
    04:00 -4°C° 0 mm 3 m/s 736 mmHg 74%
    05:00 -4°C° 0 mm 3 m/s 735 mmHg 71%
    06:00 -4°C° 0 mm 3 m/s 735 mmHg 68%
    07:00 -3°C° 0 mm 4 m/s 734 mmHg 65%
    08:00 -3°C° 0 mm 4 m/s 734 mmHg 61%
    09:00 -2°C° 0 mm 5 m/s 733 mmHg 56%
    10:00 -1°C° 0 mm 5 m/s 733 mmHg 52%
    11:00 0°C° 0.1 mm 5 m/s 732 mmHg 50%
    12:00 0°C° 0.1 mm 5 m/s 731 mmHg 47%
    13:00 +1°C° 0.1 mm 5 m/s 731 mmHg 44%
    14:00 +1°C° 0 mm 6 m/s 731 mmHg 47%
    15:00 +1°C° 0 mm 6 m/s 731 mmHg 50%
    16:00 +1°C° 0 mm 6 m/s 731 mmHg 53%
    17:00 -1°C° 0.1 mm 6 m/s 731 mmHg 58%
    18:00 -1°C° 0.1 mm 6 m/s 731 mmHg 63%
    19:00 -1°C° 0.1 mm 6 m/s 730 mmHg 68%
    20:00 -1°C° 0 mm 6 m/s 730 mmHg 69%
    21:00 -1°C° 0 mm 6 m/s 730 mmHg 70%
    22:00 -1°C° 0 mm 6 m/s 731 mmHg 71%
    23:00 -1°C° 0 mm 6 m/s 730 mmHg 75%
    Arată mai mult